WetterOnline ( http://www.wetteronline.de )

Wetter aktuell Arkona

Aktuelles Wetter: Kap Arkona/Rügen (42m)

6-stündlich | Neueste Meldungen
Ortszeit Temperatur Wetter
So, 22.07. 14:00 23.8° C wolkig
So, 22.07. 8:00 20.4° C bewölkt
So, 22.07. 2:00 17.9° C bedeckt
Sa, 21.07. 20:00 21.5° C fast wolkenlos
Sa, 21.07. 14:00 21.8° C leicht bewölkt
Sa, 21.07. 8:00 19.0° C bedeckt
Sa, 21.07. 2:00 17.5° C leicht bewölkt
Fr, 20.07. 20:00 20.7° C fast wolkenlos
Ortszeit Temperatur Wetter
So, 22.07. 14:00 23.8° C wolkig
So, 22.07. 13:50 23.8° C wolkig
So, 22.07. 13:40 24.2° C bedeckt
So, 22.07. 13:30 24.1° C wolkig
So, 22.07. 13:20 24.1° C wolkig
So, 22.07. 13:10 23.1° C wolkig
So, 22.07. 13:00 23.4° C bewölkt
So, 22.07. 12:30 23.0° C wolkig
So, 22.07. 12:00 23.3° C wolkig
So, 22.07. 11:30 23.7° C bedeckt
So, 22.07. 11:00 22.1° C bedeckt
Ortszeit Relative Feuchte Sichtweite
So, 22.07. 14:00 65% 21 km
So, 22.07. 8:00 74% 26 km
So, 22.07. 2:00 74% 27 km
Sa, 21.07. 20:00 67% 35 km
Sa, 21.07. 14:00 54% 22 km
Sa, 21.07. 8:00 76% 35 km
Sa, 21.07. 2:00 83% 29 km
Fr, 20.07. 20:00 63% 26 km
Ortszeit Relative Feuchte Sichtweite
So, 22.07. 14:00 65% 21 km
So, 22.07. 13:50 65% -
So, 22.07. 13:40 60% -
So, 22.07. 13:30 61% 24 km
So, 22.07. 13:20 61% -
So, 22.07. 13:10 64% -
So, 22.07. 13:00 61% 24 km
So, 22.07. 12:30 57% 26 km
So, 22.07. 12:00 53% 20 km
So, 22.07. 11:30 56% 24 km
So, 22.07. 11:00 62% 29 km
Ortszeit Niederschlagsmenge Niederschlagsart
So, 22.07. 14:00 0.0 l/m2 in 6 Std. -
So, 22.07. 8:00 0.1 l/m2 in 12 Std. Sprühregen
So, 22.07. 2:00 0.0 l/m2 in 6 Std. -
Sa, 21.07. 20:00 0.1 l/m2 in 12 Std. Sprühregen
Sa, 21.07. 14:00 0.0 l/m2 in 6 Std. -
Sa, 21.07. 8:00 0.0 l/m2 in 12 Std. -
Sa, 21.07. 2:00 0.0 l/m2 in 6 Std. -
Fr, 20.07. 20:00 0.0 l/m2 in 12 Std. -
Ortszeit Niederschlagsmenge Niederschlagsart
So, 22.07. 14:00 0.0 l/m2 in 1 Std. -
So, 22.07. 13:50 keine Meldung -
So, 22.07. 13:40 keine Meldung -
So, 22.07. 13:30 0.0 l/m2 in 1 Std. -
So, 22.07. 13:20 keine Meldung -
So, 22.07. 13:10 keine Meldung -
So, 22.07. 13:00 0.0 l/m2 in 1 Std. -
So, 22.07. 12:30 0.0 l/m2 in 1 Std. -
So, 22.07. 12:00 0.0 l/m2 in 1 Std. -
So, 22.07. 11:30 0.0 l/m2 in 1 Std. -
So, 22.07. 11:00 0.0 l/m2 in 1 Std. -
Ortszeit Stärke Spitze Richtung
km/h Bft. km/h Grad Sektor
So, 22.07. 14:00 7 2 22 100° O
So, 22.07. 8:00 13 3 20 240° SW
So, 22.07. 2:00 13 3 19 230° SW
Sa, 21.07. 20:00 14 3 22 280° W
Sa, 21.07. 14:00 14 3 25 300° NW
Sa, 21.07. 8:00 11 2 22 310° NW
Sa, 21.07. 2:00 15 3 20 290° W
Fr, 20.07. 20:00 18 3 43 260° W
Ortszeit Stärke Spitze Richtung
km/h Bft. km/h Grad Sektor
So, 22.07. 14:00 7 2 18 100° O
So, 22.07. 13:50 7 2 - 100° O
So, 22.07. 13:40 7 2 - 90° O
So, 22.07. 13:30 6 1 11 60° NO
So, 22.07. 13:20 6 1 - 60° NO
So, 22.07. 13:10 6 1 - 50° NO
So, 22.07. 13:00 11 2 14 140° SO
So, 22.07. 12:30 9 2 17 150° SO
So, 22.07. 12:00 13 3 19 160° S
So, 22.07. 11:30 11 2 18 170° S
So, 22.07. 11:00 11 2 18 190° S
Ortszeit Untergrenze Bedeckung Gattung
total tief tief mittel hoch
So, 22.07. 14:00 2700 m 7/8 2/8 - - -
So, 22.07. 8:00 2400 m 8/8 5/8 - - -
So, 22.07. 2:00 6300 m 8/8 8/8 - - -
Sa, 21.07. 20:00 3000 m 1/8 1/8 - - -
Sa, 21.07. 14:00 6000 m 3/8 3/8 - - -
Sa, 21.07. 8:00 7200 m 7/8 - - - -
Sa, 21.07. 2:00 6600 m 3/8 3/8 - - -
Fr, 20.07. 20:00 10500 m 1/8 0/8 - - -
Ortszeit Bedeckungsgrad in Achtel und Wolkenuntergrenze
So, 22.07. 14:00 2(2700m) 4(3300m) 7(3900m)
So, 22.07. 13:50 2(2700m) 4(3300m) 7(3900m)
So, 22.07. 13:40 3(3000m) 8(3900m)
So, 22.07. 13:30 2(2700m) 8(3600m) 8(4200m)
So, 22.07. 13:20 2(2700m) 8(3600m) 8(4200m)
So, 22.07. 13:10 2(2700m) 8(3600m) 8(4200m)
So, 22.07. 13:00 4(2700m) 7(3600m) 8(4200m)
So, 22.07. 12:30 1(2100m) 5(3000m) 8(4200m)
So, 22.07. 12:00 1(2400m) 8(3600m) 8(4200m)
So, 22.07. 11:30 5(2100m) 8(2700m) 8(3600m)
So, 22.07. 11:00 5(2100m) 8(2700m) 8(4200m)
Ortszeit Luftdruck NN (hPa) Tendenz (hPa in 3 Std.)
So, 22.07. 14:00 1012 - 0,3
So, 22.07. 8:00 1012 + 0,2
So, 22.07. 2:00 1012 0,0
Sa, 21.07. 20:00 1012 - 0,4
Sa, 21.07. 14:00 1013 - 0,3
Sa, 21.07. 8:00 1013 + 0,4
Sa, 21.07. 2:00 1013 - 0,1
Fr, 20.07. 20:00 1013 - 0,5
Ortszeit Luftdruck NN (hPa) Tendenz (hPa in 3 Std.)
So, 22.07. 14:00 1012 - 0,3
So, 22.07. 13:50 1012 keine Meldung
So, 22.07. 13:40 1013 keine Meldung
So, 22.07. 13:30 1013 - 0,1
So, 22.07. 13:20 1013 keine Meldung
So, 22.07. 13:10 1013 keine Meldung
So, 22.07. 13:00 1013 + 0,2
So, 22.07. 12:30 1013 + 0,2
So, 22.07. 12:00 1013 + 0,2
So, 22.07. 11:30 1013 + 0,4
So, 22.07. 11:00 1013 + 0,5
Ortszeit Schneehöhe (cm)
So, 22.07. 14:00 -
So, 22.07. 8:00 -
So, 22.07. 2:00 -
Sa, 21.07. 20:00 -
Sa, 21.07. 14:00 -
Sa, 21.07. 8:00 -
Sa, 21.07. 2:00 -
Fr, 20.07. 20:00 -
Ortszeit Schneehöhe (cm)
So, 22.07. 14:00 -
So, 22.07. 13:50 -
So, 22.07. 13:40 -
So, 22.07. 13:30 -
So, 22.07. 13:20 -
So, 22.07. 13:10 -
So, 22.07. 13:00 -
So, 22.07. 12:30 -
So, 22.07. 12:00 -
So, 22.07. 11:30 -
So, 22.07. 11:00 -
Link zu dieser Seite / Seite empfehlen

Das Wetter in ...